GW1669 Weather Reports


Display with metric or nautical units.
time (UTC)temp
F
wind
direction
speed
MPH
gust
MPH
rain 1hr
in
rain 24hr
in
rain mn
in
humidity
%
barometer
mb
20260507155020 55 326 5.0 9.0 0.00 0.00 0.00 42 1011.3
20260507154517 55 57 2.0 2.0 0.00 0.00 0.00 43 1011.7
20260507154014 55 290 5.0 14.0 0.00 0.00 0.00 47 1011.7
20260507153511 53 323 2.0 4.0 0.00 0.00 0.00 44 1011.3
20260507153007 53 1 4.0 7.0 0.00 0.00 0.00 47 1011.7
20260507152503 54 318 4.0 7.0 0.00 0.00 0.00 44 1011.7
20260507151959 54 22 4.0 7.0 0.00 0.00 0.00 48 1012.1
20260507151455 54 240 2.0 4.0 0.00 0.00 0.00 42 1011.7
20260507150953 54 271 4.0 7.0 0.00 0.00 0.00 47 1012.1
20260507150449 54 249 0.0 4.0 0.00 0.00 0.00 45 1012.1
20260507145945 54 317 2.0 8.0 0.00 0.00 0.00 45 1012.5
20260507145441 53 6 1.0 6.0 0.00 0.00 0.00 44 1012.5
20260507144939 53 282 3.0 8.0 0.00 0.00 0.00 53 1012.5
20260507144435 53 290 2.0 3.0 0.00 0.00 0.00 48 1012.5
20260507143932 51 20 3.0 6.0 0.00 0.00 0.00 51 1012.5
20260507143430 53 359 2.0 6.0 0.00 0.00 0.00 47 1012.5
20260507142926 54 271 2.0 6.0 0.00 0.00 0.00 54 1012.5
20260507142422 53 285 3.0 7.0 0.00 0.00 0.00 51 1012.5
20260507141920 53 269 2.0 4.0 0.00 0.00 0.00 47 1012.8
20260507141416 52 329 2.0 4.0 0.00 0.00 0.00 47 1012.8
20260507140912 52 329 4.0 7.0 0.00 0.00 0.00 45 1012.8
20260507140409 53 325 4.0 8.0 0.00 0.00 0.00 47 1012.8
20260507135907 52 226 3.0 6.0 0.00 0.00 0.00 46 1013.1
20260507135403 52 307 2.0 4.0 0.00 0.00 0.00 50 1013.1
20260507134901 52 305 4.0 6.0 0.00 0.00 0.00 46 1013.1
20260507134357 52 279 2.0 3.0 0.00 0.00 0.00 51 1013.1
20260507133853 52 275 4.0 4.0 0.00 0.00 0.00 50 1013.1
20260507133348 51 272 1.0 6.0 0.00 0.00 0.00 48 1013.1
20260507132848 51 294 1.0 7.0 0.00 0.00 0.00 49 1013.1
20260507132343 51 22 4.0 6.0 0.00 0.00 0.00 52 1012.8
20260507131841 51 59 2.0 4.0 0.00 0.00 0.00 53 1012.8
20260507131337 51 354 2.0 4.0 0.00 0.00 0.00 54 1012.8
20260507130834 51 269 3.0 3.0 0.00 0.00 0.00 54 1013.1
20260507130331 50 208 2.0 2.0 0.00 0.00 0.00 53 1012.8
20260507125830 49 202 0.0 1.0 0.00 0.00 0.00 59 1013.1
20260507125327 48 226 0.0 1.0 0.00 0.00 0.00 60 1013.1
20260507124824 48 227 1.0 2.0 0.00 0.00 0.00 60 1013.1
20260507124320 48 230 1.0 2.0 0.00 0.00 0.00 60 1013.1
20260507123819 47 232 3.0 3.0 0.00 0.00 0.00 64 1013.1
20260507123316 47 231 2.0 2.0 0.00 0.00 0.00 61 1013.1
20260507122812 47 227 1.0 2.0 0.00 0.00 0.00 62 1013.1
20260507122308 46 227 2.0 2.0 0.00 0.00 0.00 60 1013.1
20260507121804 46 226 0.0 2.0 0.00 0.00 0.00 63 1013.1
20260507121300 46 162 1.0 2.0 0.00 0.00 0.00 63 1013.1
20260507120756 46 159 1.0 1.0 0.00 0.00 0.00 63 1013.1
20260507120253 45 157 1.0 1.0 0.00 0.00 0.00 65 1013.1
20260507115749 46 151 1.0 2.0 0.00 0.00 0.00 64 1013.1
20260507115245 45 151 0.0 0.0 0.00 0.00 0.00 72 1013.1
20260507114741 45 151 0.0 0.0 0.00 0.00 0.00 73 1013.1
20260507114238 44 151 0.0 0.0 0.00 0.00 0.00 76 1013.1
20260507113736 42 151 0.0 0.0 0.00 0.00 0.00 78 1013.1
20260507113233 42 151 0.0 1.0 0.00 0.00 0.00 79 1012.8
20260507112730 41 156 0.0 0.0 0.00 0.00 0.00 83 1012.8
20260507112227 39 157 0.0 0.0 0.00 0.00 0.00 86 1012.8
20260507111725 39 157 0.0 0.0 0.00 0.00 0.00 87 1012.5
20260507111221 37 150 0.0 0.0 0.00 0.00 0.00 91 1012.8
20260507110717 36 151 0.0 0.0 0.00 0.00 0.00 94 1012.8
20260507110214 35 145 0.0 1.0 0.00 0.00 0.00 96 1012.8
20260507105711 35 151 0.0 1.0 0.00 0.00 0.00 96 1012.8
20260507105207 34 145 0.0 1.0 0.00 0.00 0.00 96 1012.5
20260507104704 34 145 1.0 2.0 0.00 0.00 0.00 96 1012.5
20260507104201 33 150 0.0 1.0 0.00 0.00 0.00 95 1012.5
20260507103656 33 151 0.0 0.0 0.00 0.00 0.00 94 1012.5
20260507103153 33 151 0.0 0.0 0.00 0.00 0.00 94 1012.5
20260507102650 34 147 0.0 0.0 0.00 0.00 0.00 94 1012.1
20260507102146 34 143 0.0 0.0 0.00 0.00 0.00 93 1012.5
20260507101642 35 140 0.0 1.0 0.00 0.00 0.00 93 1012.5
20260507101138 35 140 1.0 2.0 0.00 0.00 0.00 93 1012.5
20260507100635 35 140 0.0 1.0 0.00 0.00 0.00 92 1012.1
20260507100134 35 125 1.0 1.0 0.00 0.00 0.00 92 1012.5
20260507095631 35 135 0.0 1.0 0.00 0.00 0.00 91 1012.1
20260507095127 35 157 0.0 1.0 0.00 0.00 0.00 91 1012.5
20260507094624 35 150 0.0 0.0 0.00 0.00 0.00 89 1012.5
20260507094121 36 163 0.0 0.0 0.00 0.00 0.00 88 1012.5
20260507093618 36 164 0.0 0.0 0.00 0.00 0.00 86 1012.5
20260507093117 37 159 0.0 0.0 0.00 0.00 0.00 83 1012.5
20260507092613 37 123 0.0 1.0 0.00 0.00 0.00 83 1012.1
20260507092109 36 136 1.0 1.0 0.00 0.00 0.00 85 1012.5
20260507091607 37 156 0.0 0.0 0.00 0.00 0.00 85 1012.5
20260507091102 37 156 0.0 0.0 0.00 0.00 0.00 83 1012.5
20260507090558 37 156 0.0 0.0 0.00 0.00 0.00 82 1012.5
20260507090055 38 159 0.0 1.0 0.00 0.00 0.00 80 1012.1
20260507085552 38 142 0.0 0.0 0.00 0.00 0.00 79 1012.5
20260507085049 39 141 0.0 1.0 0.00 0.00 0.00 78 1012.1
20260507084546 39 101 1.0 2.0 0.00 0.00 0.00 77 1012.5
20260507084043 39 141 0.0 0.0 0.00 0.00 0.00 78 1012.5
20260507083539 39 153 0.0 1.0 0.00 0.00 0.00 77 1012.5
20260507083037 39 120 0.0 0.0 0.00 0.00 0.00 76 1012.5
20260507082532 39 120 0.0 1.0 0.00 0.00 0.00 76 1012.1
20260507082029 39 146 0.0 0.0 0.00 0.00 0.00 77 1012.1
20260507081525 40 149 0.0 0.0 0.00 0.00 0.00 75 1012.1
20260507081022 41 144 0.0 0.0 0.00 0.00 0.00 73 1012.1
20260507080518 41 141 0.0 0.0 0.00 0.00 0.00 72 1012.5
20260507080015 41 33 2.0 2.0 0.00 0.00 0.00 71 1012.5
20260507075510 42 326 0.0 0.0 0.00 0.00 0.00 73 1012.5
20260507075007 42 326 0.0 0.0 0.00 0.00 0.00 70 1012.5
20260507074503 42 326 0.0 0.0 0.00 0.00 0.00 70 1012.5
20260507074002 42 326 0.0 0.0 0.00 0.00 0.00 68 1012.5
20260507073458 42 326 0.0 0.0 0.00 0.00 0.00 67 1012.5
20260507072954 42 326 0.0 1.0 0.00 0.00 0.00 67 1012.5
20260507072452 42 328 0.0 1.0 0.00 0.00 0.00 67 1012.5
20260507071949 42 330 0.0 1.0 0.00 0.00 0.00 69 1012.5
20260507071446 43 331 0.0 1.0 0.00 0.00 0.00 69 1012.5
20260507070943 43 201 1.0 1.0 0.00 0.00 0.00 70 1012.5
20260507070440 43 240 0.0 1.0 0.00 0.00 0.00 69 1012.5
20260507065936 43 196 0.0 1.0 0.00 0.00 0.00 68 1012.5
20260507065433 43 150 0.0 1.0 0.00 0.00 0.00 68 1012.5
20260507064930 43 217 1.0 2.0 0.00 0.00 0.00 69 1012.5
20260507064428 43 299 0.0 2.0 0.00 0.00 0.00 68 1012.5
20260507063926 43 151 1.0 2.0 0.00 0.00 0.00 69 1012.1
20260507063423 43 140 0.0 1.0 0.00 0.00 0.00 71 1012.5
20260507062920 43 218 0.0 0.0 0.00 0.00 0.00 71 1012.5
20260507062417 44 218 0.0 2.0 0.00 0.00 0.00 71 1012.8
20260507061914 44 215 0.0 1.0 0.00 0.00 0.00 68 1012.8
20260507061413 44 215 1.0 2.0 0.00 0.00 0.00 67 1012.8
20260507060911 44 156 0.0 1.0 0.00 0.00 0.00 66 1012.5
20260507060407 44 168 0.0 1.0 0.00 0.00 0.00 67 1012.5
20260507055904 44 351 0.0 2.0 0.00 0.00 0.00 66 1012.8
20260507055359 44 8 3.0 4.0 0.00 0.00 0.00 67 1012.8
20260507054856 44 340 1.0 2.0 0.00 0.00 0.00 66 1012.8
20260507054352 44 322 1.0 2.0 0.00 0.00 0.00 65 1012.8
20260507053849 44 13 0.0 1.0 0.00 0.00 0.00 68 1012.8
20260507053347 44 201 0.0 1.0 0.00 0.00 0.00 69 1012.8
20260507052846 44 204 0.0 0.0 0.00 0.00 0.00 71 1012.8
20260507052342 44 206 0.0 1.0 0.00 0.00 0.00 71 1012.8
20260507051839 44 6 1.0 2.0 0.00 0.00 0.00 70 1012.8
20260507051337 44 202 1.0 2.0 0.00 0.00 0.00 71 1012.8
20260507050834 44 205 1.0 1.0 0.00 0.00 0.00 72 1012.8
20260507050330 44 205 0.0 1.0 0.00 0.00 0.00 72 1012.8
20260507045827 44 158 0.0 1.0 0.00 0.00 0.00 76 1013.1
20260507045324 44 77 1.0 1.0 0.00 0.00 0.00 73 1013.1
20260507044821 44 179 0.0 1.0 0.00 0.00 0.00 78 1013.1
20260507044318 44 179 0.0 0.0 0.00 0.00 0.00 77 1013.1
20260507043813 45 179 0.0 1.0 0.00 0.00 0.00 77 1012.8
20260507043310 45 194 1.0 1.0 0.00 0.00 0.00 79 1013.1
20260507042807 45 251 1.0 1.0 0.00 0.00 0.00 78 1013.1
20260507042306 45 182 0.0 0.0 0.00 0.00 0.00 77 1012.8
20260507041759 45 131 1.0 1.0 0.00 0.00 0.00 77 1012.8
20260507041256 45 130 0.0 0.0 0.00 0.00 0.00 75 1012.8
20260507040753 45 158 0.0 1.0 0.00 0.00 0.00 75 1013.1
20260507040249 45 150 0.0 2.0 0.00 0.00 0.00 74 1013.1
20260507035745 45 150 0.0 1.0 0.00 0.21 0.21 72 1013.1
20260507035240 45 180 0.0 1.0 0.00 0.21 0.21 76 1012.8
20260507034738 45 184 0.0 0.0 0.00 0.21 0.21 75 1013.1
20260507034235 46 180 0.0 0.0 0.00 0.21 0.21 75 1013.1
20260507033734 46 180 0.0 1.0 0.00 0.21 0.21 75 1012.8
20260507033231 46 170 0.0 1.0 0.00 0.21 0.21 73 1012.5
20260507032728 46 165 0.0 0.0 0.00 0.21 0.21 74 1012.5
20260507032224 46 180 0.0 0.0 0.00 0.21 0.21 73 1012.8
20260507031721 46 186 1.0 1.0 0.00 0.21 0.21 73 1012.5
20260507031217 46 179 0.0 0.0 0.00 0.21 0.21 72 1012.5
20260507030714 46 348 1.0 2.0 0.00 0.21 0.21 71 1012.5
20260507030212 46 181 0.0 1.0 0.00 0.21 0.21 72 1012.5
20260507025709 46 132 0.0 2.0 0.00 0.21 0.21 71 1012.8
20260507025206 46 148 0.0 1.0 0.00 0.21 0.21 72 1012.8
20260507024704 46 158 1.0 2.0 0.00 0.21 0.21 70 1012.8
20260507024201 47 218 1.0 2.0 0.00 0.21 0.21 73 1012.5
20260507023656 47 198 2.0 6.0 0.00 0.21 0.21 74 1012.5
20260507023154 47 266 0.0 1.0 0.00 0.21 0.21 76 1012.5
20260507022650 47 346 4.0 6.0 0.00 0.21 0.21 74 1012.1
20260507022146 47 338 4.0 4.0 0.00 0.21 0.21 78 1012.5
20260507021643 47 104 1.0 6.0 0.00 0.21 0.21 78 1012.1
20260507021138 47 159 0.0 2.0 0.00 0.21 0.21 79 1012.1
20260507020637 47 180 0.0 1.0 0.00 0.21 0.21 79 1012.1
20260507020132 47 150 1.0 3.0 0.00 0.21 0.21 78 1011.7
20260507015631 47 331 1.0 2.0 0.00 0.21 0.21 78 1011.7
20260507015128 48 165 0.0 3.0 0.00 0.21 0.21 79 1011.7
20260507014625 48 315 1.0 3.0 0.00 0.21 0.21 78 1012.1
20260507014121 48 232 1.0 2.0 0.00 0.21 0.21 81 1011.7
20260507013618 48 138 1.0 3.0 0.00 0.21 0.21 80 1011.7
20260507013114 48 24 2.0 3.0 0.00 0.21 0.21 80 1011.7
20260507012612 48 177 1.0 2.0 0.00 0.21 0.21 81 1011.7
20260507012107 48 227 0.0 1.0 0.00 0.21 0.21 81 1011.3
20260507011606 48 358 1.0 2.0 0.00 0.21 0.21 82 1012.1
20260507011101 48 170 0.0 2.0 0.00 0.21 0.21 83 1012.5
20260507010556 48 195 0.0 2.0 0.00 0.21 0.21 84 1012.1
20260507010052 48 274 3.0 4.0 0.00 0.21 0.21 83 1012.5
20260507005550 48 268 2.0 4.0 0.00 0.21 0.21 86 1012.1
20260507005046 48 141 2.0 3.0 0.00 0.21 0.21 86 1012.1
20260507004543 48 317 2.0 2.0 0.00 0.21 0.21 87 1012.5
20260507004041 48 258 2.0 2.0 0.00 0.21 0.21 87 1012.5
20260507003537 48 150 1.0 2.0 0.00 0.21 0.21 88 1012.5
20260507003032 48 204 1.0 1.0 0.00 0.21 0.21 87 1012.5
20260507002529 48 181 0.0 2.0 0.00 0.21 0.21 87 1012.1
20260507002025 48 219 1.0 2.0 0.00 0.21 0.21 86 1011.7
20260507001521 48 0 2.0 3.0 0.00 0.21 0.21 86 1011.7
20260507001019 48 45 0.0 3.0 0.00 0.21 0.21 85 1012.1
20260507000515 48 182 1.0 2.0 0.00 0.21 0.21 86 1012.1
20260507000010 49 192 1.0 1.0 0.00 0.21 0.21 86 1012.1
20260506235508 49 318 2.0 3.0 0.00 0.21 0.21 85 1011.7
20260506235003 49 231 1.0 2.0 0.00 0.21 0.21 86 1011.7
20260506234501 49 135 1.0 2.0 0.00 0.21 0.21 85 1011.3
20260506233958 49 216 1.0 1.0 0.00 0.21 0.21 85 1011.7
20260506233455 49 232 1.0 2.0 0.00 0.21 0.21 85 1011.3
20260506232951 49 340 2.0 3.0 0.00 0.21 0.21 85 1011.3
20260506232448 49 146 2.0 3.0 0.00 0.21 0.21 84 1011.3
20260506231943 49 16 2.0 3.0 0.00 0.21 0.21 85 1011.0
20260506231441 49 330 3.0 4.0 0.00 0.21 0.21 85 1011.0
20260506230938 49 46 1.0 6.0 0.00 0.21 0.21 84 1011.0
20260506230434 49 273 2.0 2.0 0.00 0.21 0.21 85 1011.0
20260506225931 49 327 1.0 3.0 0.00 0.21 0.21 85 1011.0
20260506225429 49 337 1.0 2.0 0.00 0.21 0.21 85 1011.0
20260506224925 49 234 2.0 2.0 0.00 0.21 0.21 85 1011.3
20260506224423 49 21 1.0 3.0 0.00 0.21 0.21 86 1011.0
20260506223919 49 322 3.0 4.0 0.00 0.21 0.21 85 1011.0
20260506223414 49 256 1.0 3.0 0.00 0.21 0.21 86 1011.0
20260506222912 49 96 1.0 2.0 0.00 0.21 0.21 86 1011.0
20260506222409 49 135 2.0 4.0 0.00 0.21 0.21 86 1011.0
20260506221906 49 242 2.0 3.0 0.00 0.21 0.21 87 1011.0
20260506221403 50 349 3.0 4.0 0.00 0.21 0.21 87 1011.3
20260506220900 50 319 1.0 4.0 0.00 0.21 0.21 88 1011.0
20260506220355 50 355 2.0 3.0 0.00 0.21 0.21 87 1011.0
20260506215852 50 336 3.0 6.0 0.00 0.21 0.21 87 1011.0
20260506215348 50 181 1.0 3.0 0.00 0.21 0.21 87 1010.7
20260506214844 50 2 4.0 6.0 0.00 0.21 0.21 88 1010.7
20260506214341 50 15 3.0 4.0 0.00 0.21 0.21 89 1010.7
20260506213839 50 358 3.0 8.0 0.00 0.21 0.21 88 1010.7
20260506213336 50 215 1.0 1.0 0.00 0.21 0.21 90 1010.3
20260506212833 50 27 1.0 7.0 0.00 0.21 0.21 90 1010.3
20260506212329 50 279 4.0 8.0 0.00 0.21 0.21 90 1010.3
20260506211825 50 88 1.0 3.0 0.00 0.21 0.21 90 1009.9
20260506211321 50 219 2.0 3.0 0.00 0.21 0.21 90 1009.9
20260506210818 50 23 2.0 2.0 0.00 0.21 0.21 90 1009.9
20260506210315 50 266 1.0 6.0 0.00 0.21 0.21 90 1009.9
20260506205812 50 321 2.0 3.0 0.00 0.21 0.21 91 1009.9
20260506205308 50 5 6.0 7.0 0.00 0.21 0.21 90 1009.9
20260506204804 50 263 1.0 3.0 0.00 0.21 0.21 91 1009.9
20260506204303 50 348 3.0 3.0 0.00 0.21 0.21 90 1009.6
20260506203800 50 314 1.0 3.0 0.00 0.21 0.21 91 1009.9
20260506203257 50 341 4.0 8.0 0.00 0.21 0.21 91 1009.6
20260506202754 50 354 3.0 4.0 0.00 0.21 0.21 92 1009.6
20260506202251 50 306 2.0 6.0 0.00 0.21 0.21 93 1009.6
20260506201747 50 298 2.0 3.0 0.00 0.21 0.21 94 1009.6
20260506201244 50 206 1.0 3.0 0.00 0.21 0.21 94 1009.6
20260506200741 50 10 3.0 6.0 0.00 0.21 0.21 94 1009.6
20260506200238 50 355 4.0 9.0 0.00 0.21 0.21 94 1009.9
20260506195734 50 7 3.0 4.0 0.00 0.21 0.21 95 1009.9
20260506195230 50 329 2.0 4.0 0.00 0.21 0.21 95 1009.9
20260506194728 50 339 2.0 3.0 0.00 0.21 0.21 95 1009.6
20260506194224 50 196 2.0 4.0 0.00 0.21 0.21 95 1009.6
20260506193722 50 320 3.0 4.0 0.00 0.21 0.21 95 1009.6
20260506193219 50 255 1.0 3.0 0.00 0.21 0.21 95 1009.6
20260506192715 50 311 3.0 4.0 0.00 0.21 0.21 95 1009.9
20260506192212 50 321 2.0 3.0 0.00 0.21 0.21 95 1009.6
20260506191709 50 219 2.0 3.0 0.00 0.21 0.21 95 1009.6
20260506191205 50 221 2.0 3.0 0.00 0.21 0.21 96 1009.6
20260506190702 50 319 3.0 4.0 0.00 0.21 0.21 96 1009.6
20260506190153 50 305 3.0 4.0 0.00 0.21 0.21 97 1009.6
20260506185650 50 352 6.0 9.0 0.00 0.21 0.21 96 1009.2
20260506185146 50 328 3.0 6.0 0.00 0.21 0.21 96 1009.6
20260506184644 50 341 4.0 4.0 0.00 0.21 0.21 96 1009.6
20260506184141 50 263 2.0 3.0 0.00 0.21 0.21 96 1009.6
20260506183638 50 319 3.0 13.0 0.00 0.21 0.21 95 1009.2
20260506183134 51 343 4.0 6.0 0.00 0.21 0.21 96 1009.2
20260506182631 51 343 4.0 6.0 0.00 0.21 0.21 95 1009.2
20260506182128 51 351 5.0 6.0 0.00 0.21 0.21 93 1008.9
20260506181626 52 13 4.0 7.0 0.00 0.21 0.21 93 1008.9
20260506181123 53 359 3.0 4.0 0.00 0.21 0.21 93 1009.2
20260506180620 53 353 5.0 7.0 0.00 0.21 0.21 92 1008.9
20260506180116 53 331 3.0 8.0 0.00 0.21 0.21 93 1008.9
20260506175613 53 296 3.0 4.0 0.00 0.21 0.21 93 1008.9
20260506175108 53 347 2.0 6.0 0.07 0.21 0.21 94 1008.9
20260506174608 53 304 4.0 7.0 0.07 0.21 0.21 94 1008.5
20260506174103 53 324 4.0 8.0 0.00 0.20 0.20 95 1008.9
20260506173602 54 352 4.0 6.0 0.00 0.20 0.20 94 1008.9
20260506173058 54 355 4.0 8.0 0.00 0.20 0.20 94 1008.5
20260506172555 54 288 2.0 4.0 0.00 0.20 0.20 93 1008.5
20260506172051 54 319 4.0 6.0 0.00 0.20 0.20 92 1008.5
20260506171549 55 210 3.0 8.0 0.00 0.20 0.20 91 1008.5
20260506171047 55 311 8.0 9.0 0.00 0.20 0.20 89 1008.5
20260506170544 56 315 2.0 7.0 0.00 0.20 0.20 90 1008.5
20260506170041 56 330 5.0 10.0 0.00 0.20 0.20 88 1008.1
20260506165539 58 328 5.0 9.0 0.00 0.20 0.20 87 1008.1
20260506165030 58 291 2.0 9.0 0.00 0.20 0.20 89 1007.8
20260506164527 58 291 3.0 9.0 0.00 0.20 0.20 90 1008.1
20260506164024 57 291 4.0 7.0 0.00 0.20 0.20 90 1008.1
20260506163520 55 317 4.0 4.0 0.00 0.20 0.20 95 1008.1
20260506163015 53 279 2.0 8.0 0.00 0.20 0.20 95 1008.1
20260506162512 54 345 2.0 7.0 0.00 0.20 0.20 95 1008.5
20260506162009 54 13 4.0 10.0 0.00 0.20 0.20 95 1008.1
20260506161507 55 319 2.0 6.0 0.00 0.20 0.20 95 1008.1
20260506161004 55 348 3.0 4.0 0.00 0.20 0.20 94 1007.8
20260506160502 56 229 3.0 6.0 0.00 0.20 0.20 94 1007.8
20260506155958 57 296 3.0 4.0 0.00 0.20 0.20 95 1007.8
20260506155456 57 320 4.0 6.0 0.05 0.20 0.20 96 1007.4